Regional Weather Roundup
Issued by NWS Sterling, VA

Home | Current Version | Previous Version | Graphics & Text | Print | Product List | Glossary On
Versions: 1 2 3 4 5 6 7 8 9 10 11 12 13 14 15 16 17 18 19 20 21 22 23 24 25 26 27 28 29 30 31 32 33 34 35 36 37 38 39 40 41 42 43 44 45 46 47 48 49 50
000
ASUS41 KLWX 290310
RWRLWX

REGIONAL WEATHER ROUNDUP
NATIONAL WEATHER SERVICE BALTIMORE MD/WASHINGTON DC
1100 PM EDT THU APR 28 2016

Note: "FAIR" indicates few or no clouds below 12,000 feet
with no significant weather and/or obstructions to visibility.
 TC=TEMPERATURE CELSIUS

 * =Non NWS site. Station does not report precipitation (e.g. rain,
    snow, etc.), thunder, or fog.

DCZ001-MDZ009-015-VAZ040>042-051-053>054-290400-
WASHINGTON METRO

CITY           SKY/WX    TMP DP  RH WIND       PRES   REMARKS
WASHINGTON NAT CLOUDY    48  45  89 NE8       30.03F
DULLES         CLOUDY    47  44  90 E6        30.02R
QUANTICO       CLOUDY    51  49  92 E10       30.02R
COLLEGE PARK*  CLOUDY    45  43  93 CALM      30.02F
LEESBURG*      CLOUDY    46  46 100 NE5       30.03F
MANASSAS*      CLOUDY    48  48 100 CALM      30.03R
GAITHERSBURG*  CLOUDY    45  41  87 CALM      30.07R

$$

MDZ006>007-011-014-290400-
BALTIMORE METRO

CITY           SKY/WX    TMP DP  RH WIND       PRES   REMARKS
BWI AIRPORT    DRIZZLE   47  44  90 E10       30.02R
MD SCIENCE CTR   N/A     48  42  80 MISG      30.04R
MARTIN STATE   CLOUDY    46  45  93 CALM      30.05S
ANNAPOLIS      CLOUDY    47  44  90 MISG      30.03F
FORT MEADE*    CLOUDY    45  43  93 E3        30.05S

$$

MDZ012-015-019>023-290400-
MARYLAND EASTERN SHORE

CITY           SKY/WX    TMP DP  RH WIND       PRES   REMARKS
OCEAN CITY     CLOUDY    50  49  96 NE13G21   30.00S FOG
SALISBURY      CLOUDY    50  49  96 NE8       30.00S
CAMBRIDGE*     CLOUDY    46  46 100 E7        29.98F
EASTON*        CLOUDY   N/A N/A N/A E8        30.03  FOG

$$

MDZ017>025-290400-
SOUTHERN MARYLAND

CITY           SKY/WX    TMP DP  RH WIND       PRES   REMARKS
PATUXENT RIVER DRIZZLE   49  47  93 E8        29.98F
ST INIGOES     CLOUDY    51  49  92 NE12      29.98S
LEONARDTOWN*   CLOUDY    48  46  93 E8        30.00F

$$

MDZ003>005-290400-
NORTH CENTRAL MARYLAND

CITY           SKY/WX    TMP DP  RH WIND       PRES   REMARKS
FREDERICK*     CLOUDY    45  45 100 NE3       30.07R
HAGERSTOWN APT CLOUDY    47  43  86 E5        30.01F
WESTMINSTER*   CLOUDY    45  43  93 E5        30.01F

$$

MDZ501>502-290400-
WESTERN MARYLAND

CITY           SKY/WX    TMP DP  RH WIND       PRES   REMARKS
OAKLAND*       CLOUDY    46  46 100 S3        29.94F
CUMBERLAND*    CLOUDY    48  48 100 CALM      30.04S

$$

VAZ025>031-290400-
SHENANDOAH VALLEY

CITY           SKY/WX    TMP DP  RH WIND       PRES   REMARKS
WINCHESTER*    CLOUDY    46  46 100 E3        30.01R FOG
FRONT ROYAL*   CLOUDY    46  46 100 N5        30.00S
LURAY*         CLOUDY    48  48 100 NE8       29.98S FOG
NEW MARKET*    CLOUDY    48  48  98 NE7       29.98S
STAUNTON*      CLOUDY    54  54 100 NW3       30.00R FOG
WAYNESBORO*    CLOUDY    53  52  96 MISG      29.98S

$$

WVZ021-048>050-054>055-290400-
EASTERN WEST VIRGINIA PANHANDLE

CITY           SKY/WX    TMP DP  RH WIND       PRES   REMARKS
MARTINSBURG    CLOUDY    46  45  96 N3        30.01S FOG
PETERSBURG*    CLOUDY    51  50  95 CALM      29.99S FOG

$$

VAZ036>039-050-290400-
CENTRAL FOOTHILLS

CITY           SKY/WX    TMP DP  RH WIND       PRES   REMARKS
CHARLOTTESVILL CLOUDY    54  51  90 NE7       29.99S FOG
CULPEPER*      CLOUDY    51  50  99 NE3       30.02S FOG
ORANGE*        CLOUDY    54  54 100 CALM      30.02R
GORDONSVILLE*  CLOUDY    53  53  99 NE3       29.99R
WARRENTON*     CLOUDY    50  46  85 NE3       30.02R FOG

$$

VAZ055>057-290400-
NORTH AND CENTRAL PIEDMONT

CITY           SKY/WX    TMP DP  RH WIND       PRES   REMARKS
FREDERICKSBRG* CLOUDY    50  50 100 NE5       30.00S
STAFFORD*      CLOUDY    49  47  93 E5        30.05S

$$

NCZ024-NYZ072-PAZ021-071-VAZ022-071-290400-
OTHER REGIONAL OBSERVATIONS

CITY           SKY/WX    TMP DP  RH WIND       PRES   REMARKS
NEW YORK CITY  CLOUDY    50  36  58 S3        30.09R
PHILADELPHIA   CLOUDY    45  41  86 NE6       30.06S FOG
PITTSBURGH     DRIZZLE   47  44  90 NE6       29.94F FOG
ROANOKE        LGT RAIN  60  59  96 CALM      30.00R
RICHMOND       TSTM      54  53  97 E13       29.95F FOG
RALEIGH        LGT RAIN  66  63  90 NE7       29.89R

$$

ANZ530>537-290400-
MARINE OBSERVATIONS

STATION/POSITION TIME  TEMP    WIND        PRES
                       AIR SEA DIR/SP/G
                 (UTC) (F)     (DEG/KT/KT) (MB)
THOMAS PT LIGHT  0300   47 58   40/  9/ 10 1017.9F
BALT KEY BRIDGE  0200                      1016.5F
COVE POINT       0200                      1017.1R
LEWISETTA        0200      61              1014.9F
SOLOMONS ISLAND  0200      60                N/A

$$




USA.gov is the U.S. government's official web portal to all federal, state and local government web resources and services.